This is the latest recevied weather packets stored in our database for station/object AC5CM. If no packets are shown the sender has not sent any weather packets the latest 10 day(s).
| Time | Temp. | Humidity | Pressure | Rain* | Wind** | Luminosity | Snow |
|---|---|---|---|---|---|---|---|
| 1777398787 | 31.67° C | 62% | 1014.8 hPa | 0 mm | - | - | - |
| 1777398484 | 31.67° C | 62% | 1014.9 hPa | 0 mm | - | - | - |
| 1777398180 | 32.22° C | 62% | 1015 hPa | 0 mm | - | - | - |
| 1777397877 | 31.67° C | 63% | 1015 hPa | 0 mm | - | - | - |
| 1777397572 | 32.22° C | 61% | 1015.1 hPa | 0 mm | - | - | - |
| 1777397269 | 32.22° C | 62% | 1015 hPa | 0 mm | - | - | - |
| 1777396966 | 31.67° C | 63% | 1015.1 hPa | 0 mm | - | - | - |
| 1777396663 | 31.11° C | 64% | 1015.2 hPa | 0 mm | - | - | - |
| 1777396359 | 31.67° C | 62% | 1015 hPa | 0 mm | - | - | - |
| 1777396056 | 31.67° C | 63% | 1014.9 hPa | 0 mm | - | - | - |
| 1777395751 | 31.67° C | 63% | 1015.1 hPa | 0 mm | - | - | - |
| 1777395447 | 31.67° C | 63% | 1015.2 hPa | 0 mm | - | - | - |
| 1777395145 | 31.67° C | 64% | 1015.1 hPa | 0 mm | - | - | - |
| 1777394841 | 31.67° C | 63% | 1015.2 hPa | 0 mm | - | - | - |
| 1777394537 | 31.11° C | 63% | 1015 hPa | 0 mm | - | - | - |
| 1777394234 | 31.11° C | 65% | 1015 hPa | 0 mm | - | - | - |
| 1777393930 | 30.56° C | 66% | 1015.1 hPa | 0 mm | - | - | - |
| 1777393629 | 31.67° C | 66% | 1015.1 hPa | 0 mm | - | - | - |
| 1777393325 | 31.11° C | 63% | 1015.2 hPa | 0 mm | - | - | - |
| 1777393022 | 30.56° C | 67% | 1015 hPa | 0 mm | - | - | - |
| 1777392717 | 30.56° C | 67% | 1015.2 hPa | 0 mm | - | - | - |
| 1777392414 | 30.56° C | 66% | 1014.7 hPa | 0 mm | - | - | - |
| 1777392109 | 30.56° C | 65% | 1014.9 hPa | 0 mm | - | - | - |
| 1777391804 | 30.56° C | 66% | 1014.8 hPa | 0 mm | - | - | - |
| 1777391500 | 30° C | 68% | 1014.8 hPa | 0 mm | - | - | - |
* Rain latest hour (hover to see other rain measurements)
** Current wind speed in m/s (hover to see current wind gust speed)